User: anonymous   Login
Location: Berlin
(52.5170°N, 13.4000°E)
Time: 18:33:28
(UTC+02:00)
Language:

ISS - Orbit

View from above orbital plane
View from above orbital plane
View from above satellite
View from above satellite

Ground track
Ground track

The orbit data is extracted from the following two-line orbital elements,

1 25544U 98067A   18297.53191072  .00016717  00000-0  10270-3 0  9024
2 25544  51.6358  94.1576 0004007 327.8320  32.2587 15.53889726 18626
Epoch (UTC): 24 October 2018 12:45:57
Eccentricity: 0.0004007
inclination: 51.6358°
perigee height: 402 km
apogee height: 408 km
right ascension of ascending node: 94.1576°
argument of perigee: 327.8320°
revolutions per day: 15.53889726
mean anomaly at epoch: 32.2587°
orbit number at epoch: 1862

The dashed part of the orbit path shows where the satellite is in the earth's shadow,  

DLR